| time (UTC) | temp F | wind direction | speed knots | gust knots | rain 1hr in | rain 24hr in | rain mn in | humidity % | barometer mb |
| 20260505023010 | 71 | 215 | 1.7 | 3.5 | 0.00 | 0.00 | 0.00 | 62 | 1010.4 |
| 20260505021547 | 71 | 115 | 1.7 | 7.0 | 0.00 | 0.00 | 0.00 | 61 | 1010.3 |
| 20260505020024 | 72 | 178 | 0.9 | 4.3 | 0.00 | 0.00 | 0.00 | 60 | 1010.1 |
| 20260505014504 | 72 | 147 | 2.6 | 6.1 | 0.00 | 0.00 | 0.00 | 59 | 1010.1 |
| 20260505013050 | 73 | 158 | 2.6 | 7.0 | 0.00 | 0.00 | 0.00 | 59 | 1010.0 |
| 20260505011529 | 73 | 77 | 0.9 | 3.5 | 0.00 | 0.00 | 0.00 | 57 | 1009.9 |
| 20260505010004 | 74 | 174 | 3.5 | 10.4 | 0.00 | 0.00 | 0.00 | 56 | 1009.9 |
| 20260505004546 | 74 | 160 | 2.6 | 7.0 | 0.00 | 0.00 | 0.00 | 56 | 1009.9 |
| 20260505003024 | 75 | 148 | 3.5 | 7.8 | 0.00 | 0.00 | 0.00 | 55 | 1009.8 |
| 20260505001506 | 75 | 145 | 0.9 | 5.2 | 0.00 | 0.00 | 0.00 | 55 | 1010.0 |
| 20260505000054 | 75 | 167 | 2.6 | 7.0 | 0.00 | 0.00 | 0.00 | 54 | 1009.9 |
| 20260504234525 | 76 | 189 | 5.2 | 9.6 | 0.00 | 0.00 | 0.00 | 53 | 1009.9 |
| 20260504233010 | 76 | 187 | 6.1 | 12.2 | 0.00 | 0.00 | 0.00 | 52 | 1009.9 |
| 20260504231548 | 76 | 152 | 2.6 | 14.8 | 0.00 | 0.00 | 0.00 | 52 | 1010.3 |
| 20260504230035 | 77 | 172 | 7.0 | 14.8 | 0.00 | 0.00 | 0.00 | 50 | 1010.4 |
| 20260504224515 | 77 | 18 | 4.3 | 12.2 | 0.00 | 0.00 | 0.00 | 50 | 1010.6 |
| 20260504223122 | 79 | 137 | 5.2 | 10.4 | 0.00 | 0.00 | 0.00 | 49 | 1010.7 |
| 20260504221536 | 78 | 131 | 3.5 | 10.4 | 0.00 | 0.00 | 0.00 | 49 | 1010.8 |
| 20260504220018 | 79 | 135 | 2.6 | 10.4 | 0.00 | 0.00 | 0.00 | 49 | 1011.0 |
| 20260504214551 | 79 | 152 | 4.3 | 16.5 | 0.00 | 0.00 | 0.00 | 48 | 1011.2 |
| 20260504213045 | 78 | 153 | 5.2 | 13.9 | 0.00 | 0.00 | 0.00 | 48 | 1011.2 |
| 20260504211520 | 79 | 120 | 6.1 | 14.8 | 0.00 | 0.00 | 0.00 | 47 | 1011.5 |
| 20260504210101 | 78 | 145 | 7.8 | 12.2 | 0.00 | 0.00 | 0.00 | 48 | 1011.5 |
| 20260504204547 | 78 | 206 | 7.8 | 14.8 | 0.00 | 0.00 | 0.00 | 47 | 1011.7 |
| 20260504203023 | 79 | 326 | 5.2 | 15.6 | 0.00 | 0.00 | 0.00 | 48 | 1011.9 |
| 20260504201604 | 79 | 174 | 5.2 | 14.8 | 0.00 | 0.00 | 0.00 | 47 | 1012.3 |
| 20260504201501 | 79 | 131 | 5.2 | 14.8 | 0.00 | 0.00 | 0.00 | 47 | 1012.2 |
| 20260504200036 | 78 | 193 | 6.1 | 13.0 | 0.00 | 0.00 | 0.00 | 48 | 1012.4 |
| 20260504194521 | 78 | 204 | 7.8 | 16.5 | 0.00 | 0.00 | 0.00 | 47 | 1012.6 |
| 20260504193005 | 78 | 110 | 5.2 | 14.8 | 0.00 | 0.00 | 0.00 | 47 | 1012.8 |
| 20260504191541 | 79 | 258 | 4.3 | 15.6 | 0.00 | 0.00 | 0.00 | 46 | 1013.3 |
| 20260504190022 | 78 | 160 | 4.3 | 8.7 | 0.00 | 0.00 | 0.00 | 47 | 1013.5 |
| 20260504184600 | 77 | 160 | 4.3 | 13.9 | 0.00 | 0.00 | 0.00 | 48 | 1013.7 |
| 20260504183043 | 77 | 236 | 6.1 | 20.0 | 0.00 | 0.00 | 0.00 | 46 | 1013.7 |
| 20260504181523 | 78 | 137 | 3.5 | 13.9 | 0.00 | 0.00 | 0.00 | 46 | 1014.0 |
| 20260504180003 | 77 | 87 | 2.6 | 11.3 | 0.00 | 0.00 | 0.00 | 48 | 1014.0 |
| 20260504174546 | 76 | 168 | 5.2 | 17.4 | 0.00 | 0.00 | 0.00 | 48 | 1014.2 |
| 20260504173025 | 76 | 141 | 6.1 | 13.0 | 0.00 | 0.00 | 0.00 | 48 | 1014.5 |
| 20260504171505 | 76 | 162 | 10.4 | 16.5 | 0.00 | 0.00 | 0.00 | 46 | 1014.6 |